Weather Roundup
Issued by NWS

Home | Current Version | Previous Version | Text Only | Print | Product List | Glossary On
Versions: 1 2 3 4 5 6 7 8 9 10 11 12 13 14 15 16 17 18 19 20 21 22 23 24 25 26 27 28 29 30 31 32 33 34 35 36 37 38 39 40 41 42 43 44 45 46 47 48 49 50
000
NZUS93 KARX 012110
HRRWXR

CURRENT HOURLY OBSERVATIONS ACROSS
MUCH OF THE UPPER MISSISSIPPI VALLEY
NATIONAL WEATHER SERVICE LA CROSSE WI
300 PM CST WED MAR 01 2017


...SOUTHEAST MINNESOTA...


CITY           SKY/WX    TMP DP  RH WIND       PRES   REMARKS
ROCHESTER      PTSUNNY   31  23  72 NW20      29.91R WCI  19
ROCHESTER/MAYO FAIR      33  22  65 NW18G25   29.91R WCI  21
WINONA         CLOUDY    32  25  74 NW16G23   29.92R WCI  21
AUSTIN         CLOUDY    32  21  64 NW17      29.94R WCI  21
ALBERT LEA     CLOUDY    34  25  69 NW10G20   29.95R WCI  26
DODGE CENTER   NOT AVBL
PRESTON        PTSUNNY   31  22  69 NW20      29.90R WCI  19
OWATONNA       NOT AVBL
FARIBAULT      CLOUDY    34  25  69 W14G21    29.95R WCI  24
$$

...ELSEWHERE IN MINNESOTA...


CITY           SKY/WX    TMP DP  RH WIND       PRES   REMARKS
MINNEAPOLIS    PTSUNNY   35  21  56 NW15      29.94R WCI  25
INTNL FALLS    CLOUDY    24   4  42 N9        29.95R WCI  14
DULUTH         MOSUNNY   31   1  28 N7        29.86R WCI  24
RED WING       MOSUNNY   36  19  51 N6        29.92R WCI  31
REDWOOD FALLS  CLOUDY    32  20  61 NW17G26   30.01R WCI  21
MANKATO          N/A     35  23  61 NW21      29.96R WCI  24
WORTHINGTON    LGT SNOW  30  27  86 W22       30.03R FOG     WCI  17
FAIRMONT       CLOUDY    35  24  64 NW22      30.00R WCI  23
$$

...SOUTHWEST WISCONSIN...


CITY           SKY/WX    TMP DP  RH WIND       PRES   REMARKS
LA CROSSE      CLOUDY    32  24  72 NW20      29.88R WCI  20
PRAIRIE DU CHI CLOUDY    32  31  96 NW18G28   29.89R WCI  20
BOSCOBEL       CLOUDY    33  28  81 NW15G21   29.87R HAZE    WCI  23
LONE ROCK      LGT SNOW  31  27  85 NW15G24   29.82R FOG     WCI  20
PLATTEVILLE    CLOUDY    33  31  92 NW20G30   29.83R WCI  21
FORT MC COY    CLOUDY    29  24  80 NW10G24   29.87R WCI  20
CAMP DOUGLAS   LGT SNOW  28  25  86 NW15G24   29.82R FOG     WCI  17
MAUSTON-NEW LI LGT SNOW  28  26  89 NW15G25   29.80R WCI  17
VIROQUA        CLOUDY    30  26  87 NW22      29.83R WCI  16
WIS DELLS      LGT SNOW  29  27  91 NW10G18   29.77R WCI  20
$$

...ELSEWHERE IN WISCONSIN...


CITY           SKY/WX    TMP DP  RH WIND       PRES   REMARKS
MILWAUKEE      LGT SNOW  32  25  75 NW15G22   29.67R WCI  22
MADISON        SNOW      28  25  88 NW13G21   29.76R VSB 1/2 WCI  17
GREEN BAY      SNOW      27  26  96 NW16      29.70R VSB 1/2 WCI  15
EAU CLAIRE     MOSUNNY   30  19  63 N10       29.89R WCI  21
BLACK RVR FLS  MOCLDY    31  21  67 NW13G21   29.86R WCI  21
MEDFORD        CLOUDY    25  17  73 NW15      29.80R WCI  12
WAUSAU         CLOUDY    25  18  74 NW18G25   29.76R WCI  11
WIS RAPIDS     LGT SNOW  27  23  85 NW17G25   29.81R FOG     WCI  14
MARSHFIELD     MIX PCPN  26  19  74 NW20      29.79R WCI  12
RICE LAKE      PTSUNNY   29  19  64 CALM      29.91R
$$

...NORTHEAST IOWA...


CITY           SKY/WX    TMP DP  RH WIND       PRES   REMARKS
WATERLOO       CLOUDY    35  26  69 NW23G30   29.95R WCI  23
DUBUQUE        CLOUDY    33  29  85 NW24G33   29.85R WCI  20
DECORAH        CLOUDY    30  25  80 NW16      29.89R WCI  19
MASON CITY     CLOUDY    32  25  75 NW20G26   29.99R WCI  20
CHARLES CITY   CLOUDY    34  28  80 NW25G32   29.95R WCI  21
OELWEIN        CLOUDY    34  28  80 NW26G32   29.92R WCI  21
$$

...ELSEWHERE IN IOWA...


CITY           SKY/WX    TMP DP  RH WIND       PRES   REMARKS
DES MOINES     PTSUNNY   41  26  55 NW24G33   30.04R
IOWA CITY      CLOUDY    39  27  62 NW20G35   29.96R WCI  29
FORT DODGE     MOSUNNY   36  27  69 W15G26    30.04R WCI  26
MARSHALLTOWN   PTSUNNY   38  26  62 NW28G39   29.98R WCI  26
CEDAR RAPIDS   CLOUDY    36  29  75 NW22G30   29.92R WCI  25
$$

...NORTHERN ILLINOIS...


CITY           SKY/WX    TMP DP  RH WIND       PRES   REMARKS
CHICAGO-OHARE  DRIZZLE   39  33  79 W18       29.66R WCI  30
CHICAGO-MIDWAY FLURRIES  39  33  79 W16G28    29.68R WCI  30
MOLINE         CLOUDY    40  29  64 W24G44    29.88R WCI  29
ROCKFORD       LGT SNOW  32  28  85 NW25G39   29.78R FOG     WCI  19
PEORIA         CLOUDY    41  29  62 NW23G40   29.87R
$$

NOTE: "FAIR" INDICATES FEW OR NO CLOUDS BELOW 12,000 FEET WITH NO
SIGNIFICANT WEATHER AND/OR OBSTRUCTIONS TO VISIBILITY. WIND
SPEEDS ARE IN MILES-PER-HOUR.




USA.gov is the U.S. government's official web portal to all federal, state and local government web resources and services.